Location: Conjunto Santa Maria
(19.9513°S, 43.9599°W)
Time: 13:35:00
(UTC+00:00)

MOS 1-B Rocket - Pass Details

Date: 21 January 2021
Orbit: 891 x 1605 km, 99.0° (Epoch: 03 March)

Event Time Altitude Azimuth Distance (km) Brightness Sun altitude
Exits shadow 23:16:45 21° 13° (NNE) 2,320 5.6 -21.0°
Maximum altitude 23:21:44 89° 288° (WNW) 1,265 4.5 -22.0°
Drops below altitude 10° 23:29:57 10° 193° (SSW) 3,528 7.5 -23.6°
Sets 23:32:56 0° 192° (SSW) 4,595 8.2 -24.2°
